Le nostre stazioni meteo in Italia

Pubblicità
Il mio iltempo24.it
Lampedusa, Italia (16490): Temperatura & dewpoint: 16.10.2018 08:00:00 - 22.10.2018 08:00:00 (CEST)Lampedusa, Italia (16490): velocità del vento: 16.10.2018 08:00:00 - 22.10.2018 08:00:00 (CEST)Lampedusa, Italia (16490): direzione del vento: 16.10.2018 08:00:00 - 22.10.2018 08:00:00 (CEST)Lampedusa, Italia (16490): visibility: 16.10.2018 08:00:00 - 22.10.2018 08:00:00 (CEST)
Data & Tempo tt [°C] td [°C] ff [km/h] ff [kn] dd vv [km]
22.10.2018 08:00:00 21,0 18,0 21 11 ONO 10
22.10.2018 07:00:00 21,0 18,0 15 8 ONO 10
22.10.2018 06:00:00 21,0 17,0 21 11 O 10
22.10.2018 05:00:00 - - - - - -
22.10.2018 04:00:00 - - - - - -
22.10.2018 03:00:00 - - - - - -
22.10.2018 02:00:00 - - - - - -
22.10.2018 01:00:00 - - - - - -
22.10.2018 00:00:00 - - - - - -
21.10.2018 23:00:00 - - - - - -
21.10.2018 22:00:00 22,0 18,0 5 3 SO 10
21.10.2018 21:00:00 22,0 18,0 4 2 O 10
21.10.2018 20:00:00 22,0 18,0 2 1 NO 10
21.10.2018 19:00:00 23,0 19,0 5 3 NNO 10
21.10.2018 18:00:00 23,0 19,0 9 5 NNO 10
21.10.2018 17:00:00 24,0 19,0 11 6 N 10
21.10.2018 16:00:00 24,0 19,0 8 4 NNO 10
21.10.2018 15:00:00 24,0 19,0 8 4 NNE 10
21.10.2018 14:00:00 24,0 19,0 8 4 NE 10
21.10.2018 13:00:00 24,0 19,0 5 3 N 10
21.10.2018 12:00:00 24,0 19,0 9 5 ENE 10
21.10.2018 11:00:00 24,0 19,0 8 4 ENE 10
21.10.2018 10:00:00 24,0 19,0 5 3 NNE 10
21.10.2018 09:00:00 23,0 19,0 11 6 NE 10
21.10.2018 08:00:00 23,0 19,0 9 5 NNE 10
21.10.2018 07:00:00 23,0 19,0 9 5 NNE 10
21.10.2018 06:00:00 23,0 19,0 11 6 ENE 10
21.10.2018 05:00:00 - - - - - -
21.10.2018 04:00:00 - - - - - -
21.10.2018 03:00:00 - - - - - -
21.10.2018 02:00:00 - - - - - -
21.10.2018 01:00:00 - - - - - -
21.10.2018 00:00:00 - - - - - -
20.10.2018 23:00:00 - - - - - -
20.10.2018 22:00:00 24,0 19,0 13 7 E 10
20.10.2018 21:00:00 24,0 19,0 18 10 ENE 10
20.10.2018 20:00:00 24,0 19,0 13 7 ENE 10
20.10.2018 19:00:00 24,0 19,0 16 9 ENE 10
20.10.2018 18:00:00 24,0 20,0 26 14 ENE 10
20.10.2018 17:00:00 24,0 20,0 26 14 ENE 10
20.10.2018 16:00:00 24,0 20,0 13 7 ENE 10
20.10.2018 15:00:00 24,0 20,0 18 10 ENE 10
20.10.2018 14:00:00 24,0 20,0 28 15 ENE 10
20.10.2018 13:00:00 24,0 20,0 22 12 ENE 10
20.10.2018 12:00:00 24,0 20,0 24 13 NE 10
20.10.2018 11:00:00 24,0 20,0 24 13 NE 9
20.10.2018 10:00:00 23,0 20,0 22 12 NE 10
20.10.2018 09:00:00 23,0 20,0 18 10 NE 9
20.10.2018 08:00:00 23,0 20,0 22 12 NNE 10
20.10.2018 07:00:00 23,0 19,0 15 8 NE 10
20.10.2018 06:00:00 23,0 19,0 16 9 NE 10
20.10.2018 05:00:00 - - - - - -
20.10.2018 04:00:00 - - - - - -
20.10.2018 03:00:00 - - - - - -
20.10.2018 02:00:00 - - - - - -
20.10.2018 01:00:00 - - - - - -
20.10.2018 00:00:00 - - - - - -
19.10.2018 23:00:00 - - - - - -
19.10.2018 22:00:00 23,0 17,0 8 4 E 10
19.10.2018 21:00:00 23,0 17,0 11 6 E 10
19.10.2018 20:00:00 23,0 17,0 8 4 E 10
19.10.2018 19:00:00 23,0 17,0 4 2 NE 10
19.10.2018 18:00:00 24,0 17,0 5 3 NNE 10
19.10.2018 17:00:00 24,0 17,0 8 4 NNE 10
19.10.2018 16:00:00 24,0 18,0 8 4 NE 10
19.10.2018 15:00:00 24,0 18,0 8 4 N 10
19.10.2018 14:00:00 25,0 17,0 5 3 NNO 10
19.10.2018 13:00:00 25,0 17,0 13 7 OSO 10
19.10.2018 12:00:00 25,0 17,0 9 5 OSO 10
19.10.2018 11:00:00 25,0 16,0 15 8 ONO 10
19.10.2018 10:00:00 24,0 17,0 9 5 NO 10
19.10.2018 09:00:00 23,0 18,0 5 3 O 10
19.10.2018 08:00:00 22,0 18,0 2 1 - 10
19.10.2018 07:00:00 22,0 18,0 4 2 ENE 10
19.10.2018 06:00:00 22,0 18,0 5 3 ESE 10
19.10.2018 05:00:00 - - - - - -
19.10.2018 04:00:00 - - - - - -
19.10.2018 03:00:00 - - - - - -
19.10.2018 02:00:00 - - - - - -
19.10.2018 01:00:00 - - - - - -
19.10.2018 00:00:00 - - - - - -
18.10.2018 23:00:00 - - - - - -
18.10.2018 22:00:00 21,0 14,0 21 11 SO 10
18.10.2018 21:00:00 23,0 17,0 9 5 ESE 10
18.10.2018 20:00:00 23,0 16,0 5 3 S 10
18.10.2018 19:00:00 23,0 17,0 5 3 SO 10
18.10.2018 18:00:00 23,0 16,0 13 7 OSO 10
18.10.2018 17:00:00 24,0 18,0 15 8 OSO 10
18.10.2018 16:00:00 24,0 18,0 15 8 SO 10
18.10.2018 15:00:00 24,0 18,0 21 11 OSO 10
18.10.2018 14:00:00 24,0 20,0 16 9 OSO 10
18.10.2018 13:00:00 25,0 19,0 22 12 SO 10
18.10.2018 12:00:00 25,0 20,0 24 13 SO 10
18.10.2018 11:00:00 25,0 20,0 24 13 SSO 10
18.10.2018 10:00:00 25,0 21,0 21 11 SSO 9
18.10.2018 09:00:00 25,0 23,0 34 18 SE 8
18.10.2018 08:00:00 25,0 22,0 35 19 SE 10
18.10.2018 07:00:00 25,0 22,0 39 21 ESE 7
18.10.2018 06:00:00 25,0 22,0 39 21 SE 7
18.10.2018 05:00:00 - - - - - -
18.10.2018 04:00:00 - - - - - -
18.10.2018 03:00:00 - - - - - -
18.10.2018 02:00:00 - - - - - -
18.10.2018 01:00:00 - - - - - -
18.10.2018 00:00:00 - - - - - -
17.10.2018 23:00:00 - - - - - -
17.10.2018 22:00:00 - - - - - -
17.10.2018 21:00:00 25,0 21,0 46 25 ESE 10
17.10.2018 20:00:00 - - - - - -
17.10.2018 19:00:00 25,0 21,0 44 24 ESE 9
17.10.2018 18:00:00 25,0 21,0 42 23 ESE 10
17.10.2018 17:00:00 25,0 22,0 37 20 E 10
17.10.2018 16:00:00 25,0 21,0 35 19 E 10
17.10.2018 15:00:00 25,0 21,0 35 19 E 10
17.10.2018 14:00:00 26,0 21,0 35 19 ESE 10
17.10.2018 13:00:00 26,0 21,0 34 18 ESE 10
17.10.2018 12:00:00 25,0 21,0 31 17 ESE 10
17.10.2018 11:00:00 25,0 20,0 31 17 ESE 10
17.10.2018 10:00:00 25,0 20,0 35 19 ESE 10
17.10.2018 09:00:00 24,0 21,0 31 17 E 10
17.10.2018 08:00:00 24,0 20,0 29 16 E 10
17.10.2018 07:00:00 24,0 19,0 24 13 E 10
17.10.2018 06:00:00 24,0 20,0 24 13 E 10
17.10.2018 05:00:00 - - - - - -
17.10.2018 04:00:00 - - - - - -
17.10.2018 03:00:00 - - - - - -
17.10.2018 02:00:00 - - - - - -
17.10.2018 01:00:00 - - - - - -
17.10.2018 00:00:00 - - - - - -
16.10.2018 23:00:00 - - - - - -
16.10.2018 22:00:00 - - - - - -
16.10.2018 21:00:00 24,0 20,0 21 11 ESE 10
16.10.2018 20:00:00 24,0 20,0 18 10 ESE 10
16.10.2018 19:00:00 25,0 20,0 18 10 SE 10
16.10.2018 18:00:00 25,0 20,0 21 11 SE 10
16.10.2018 17:00:00 25,0 21,0 18 10 SE 10
16.10.2018 16:00:00 26,0 21,0 18 10 SE 10
16.10.2018 15:00:00 26,0 21,0 21 11 SSE 10
16.10.2018 14:00:00 26,0 22,0 18 10 SSE 10
16.10.2018 13:00:00 26,0 21,0 21 11 SSE 10
16.10.2018 12:00:00 26,0 21,0 21 11 SSE 10
16.10.2018 11:00:00 26,0 21,0 21 11 SSE 10
16.10.2018 10:00:00 25,0 21,0 18 10 SSE 10
16.10.2018 09:00:00 25,0 21,0 13 7 S 10
16.10.2018 08:00:00 24,0 20,0 22 12 S 10

tt = Temperatura
td = dewpoint
ff = velocità del vento
dd = direzione del vento
vv = visibility

Stazioni seguenti

WeatherPro
AMSI
MeteoEarth